Location: *
(46.3500°N, 10.9000°E)
Time: 17:26:37
(UTC+00:00)

Cosmos 1833 Rocket - Pass Details

Date: 09 April 2020
Orbit: 834 x 838 km, 71.0° (Epoch: 29 May)

Event Time Altitude Azimuth Distance (km) Brightness Sun altitude
Exits shadow 22:21:10 26° 284° (WNW) 1,603 4.3 -34.2°
Maximum altitude 22:22:36 29° 310° (NW) 1,498 4.3 -34.3°
Drops below altitude 10° 22:27:28 10° 10° (N) 2,460 5.8 -34.5°
Sets 22:30:15 0° 21° (NNE) 3,397 6.5 -34.6°
